2024/05/13 11:50:00,0.0,13.2
2024/05/13 12:00:00,0.0,13.7
2024/05/13 12:10:00,0.0,13.6
2024/05/13 12:20:00,0.0,13.6
2024/05/13 12:30:00,0.0,13.3
2024/05/13 12:40:00,0.0,13.4
2024/05/13 12:50:00,0.0,13.5
2024/05/13 13:00:00,0.0,13.7
2024/05/13 13:10:00,0.0,13.9
2024/05/13 13:20:00,0.0,13.9
2024/05/13 13:30:00,0.0,14.2
2024/05/13 13:40:00,0.0,14.3
2024/05/13 13:50:00,0.0,13.7
2024/05/13 14:00:00,0.0,13.6
2024/05/13 14:10:00,0.0,14.0
2024/05/13 14:20:00,0.0,14.4
2024/05/13 14:30:00,0.0,14.5
2024/05/13 14:40:00,0.0,14.4
2024/05/13 14:50:00,0.0,14.6
2024/05/13 15:00:00,0.0,14.8
2024/05/13 15:10:00,0.0,14.2
2024/05/13 15:20:00,0.0,14.3
2024/05/13 15:30:00,0.0,14.9
2024/05/13 15:40:00,0.0,14.5
2024/05/13 15:50:00,0.0,14.6
2024/05/13 16:00:00,0.0,14.2
2024/05/13 16:10:00,0.0,14.2
2024/05/13 16:20:00,0.0,14.3
2024/05/13 16:30:00,0.0,14.5
2024/05/13 16:40:00,0.0,14.5
2024/05/13 16:50:00,0.0,14.0
2024/05/13 17:00:00,0.0,14.0
2024/05/13 17:10:00,0.0,14.0
2024/05/13 17:20:00,0.0,13.8
2024/05/13 17:30:00,0.0,14.1
2024/05/13 17:40:00,0.0,13.4
2024/05/13 17:50:00,0.0,13.4
2024/05/13 18:00:00,0.0,12.4
2024/05/13 18:10:00,0.0,11.9
2024/05/13 18:20:00,0.0,11.3
2024/05/13 18:30:00,0.0,10.6
2024/05/13 18:40:00,0.0,9.9
2024/05/13 18:50:00,0.0,9.3
2024/05/13 19:00:00,0.0,8.9
2024/05/13 19:10:00,0.0,8.5
2024/05/13 19:20:00,0.0,8.1
2024/05/13 19:30:00,0.0,7.7
2024/05/13 19:40:00,0.0,7.5
2024/05/13 19:50:00,0.0,7.2
2024/05/13 20:00:00,0.0,7.1
2024/05/13 20:10:00,0.0,6.9
2024/05/13 20:20:00,0.0,6.7
2024/05/13 20:30:00,0.0,6.5
2024/05/13 20:40:00,0.0,6.3
2024/05/13 20:50:00,0.0,6.3
2024/05/13 21:00:00,0.0,6.2
2024/05/13 21:10:00,0.0,6.0
2024/05/13 21:20:00,0.0,5.9
2024/05/13 21:30:00,0.0,5.7
2024/05/13 21:40:00,0.0,5.6
2024/05/13 21:50:00,0.0,5.5
2024/05/13 22:00:00,0.0,5.4
2024/05/13 22:10:00,0.0,5.3
2024/05/13 22:20:00,0.0,5.1
2024/05/13 22:30:00,0.0,5.0
2024/05/13 22:40:00,0.0,4.8
2024/05/13 22:50:00,0.0,4.7
2024/05/13 23:00:00,0.0,4.6
2024/05/13 23:10:00,0.0,4.6
2024/05/13 23:20:00,0.0,4.5
2024/05/13 23:30:00,0.0,4.2
2024/05/13 23:40:00,0.0,4.2
2024/05/13 23:50:00,0.0,4.0
